Location: Ahausen
(50.4985°N, 8.2722°E)
Time: 10:32:41
(UTC+00:00)

Ariane Rocket - Pass Details

Date: 18 September 2020
Orbit: 760 x 770 km, 98.7° (Epoch: 30 October)

Event Time Altitude Azimuth Distance (km) Brightness Sun altitude
Exits shadow 18:09:44 - 138° (SE) 3,125 5.7 -6.6°
Reaches altitude 10° 18:11:55 10° 131° (SE) 2,297 4.9 -6.9°
Maximum altitude 18:16:33 38° 64° (ENE) 1,162 3.6 -7.7°
Drops below altitude 10° 18:21:14 10° 358° (N) 2,318 5.7 -8.4°
Sets 18:23:40 0° 351° (N) 3,250 6.6 -8.8°
